This demonstration page uses our WeatherBlox Daily Observations layout. Learn more.

Left ArrowRight Arrow

39.51506, -84.39828

Hourly Observations for December 25, 2018

Temp ( °F °C ) Dew Point ( °F °C ) Humidity (%) Winds ( mph kmh ) Pressure ( in mb ) Visibility ( mi km ) Precip ( " mm )
12:15 am 00:15 Clear 27 -2.7 25 -3.8 92 92 Calm 30.33 1027 10 16 0.00 0.00
12:35 am 00:35 Cloudy 27 -2.6 25 -3.7 92 92 Calm 30.33 1027 10 16 0.00 0.00
12:55 am 00:55 Cloudy 28 -2.4 25 -3.7 91 91 Calm 30.33 1027 10 16 0.00 0.00
1:15 am 01:15 Cloudy 28 -2.2 26 -3.6 90 90 Calm 30.33 1027 10 16 0.00 0.00
1:35 am 01:35 Mostly Cloudy 28 -2.1 26 -3.6 90 90 Calm 30.33 1027 10 16 0.00 0.00
1:55 am 01:55 Mostly Cloudy 29 -1.8 26 -3.3 90 90 Calm 30.33 1027 10 16 0.00 0.00
2:15 am 02:15 Cloudy 28 -2.2 26 -3.4 92 92 Calm 30.33 1027 10 16 0.00 0.00
2:35 am 02:35 Cloudy 28 -2 26 -3.3 91 91 N 3 6 30.33 1027 10 16 0.00 0.00
2:55 am 02:55 Cloudy 29 -1.4 26 -3.5 86 86 N 3 6 30.33 1027 10 16 0.00 0.00
3:15 am 03:15 Cloudy 30 -1.3 26 -3.2 87 87 NE 5 7 30.33 1027 10 16 0.00 0.00
3:35 am 03:35 Cloudy 30 -1.2 26 -3.5 85 85 Calm 30.33 1027 10 16 0.00 0.00
3:55 am 03:55 Cloudy 29 -1.4 26 -3.5 86 86 Calm 30.33 1027 10 16 0.00 0.00
4:15 am 04:15 Cloudy 30 -1.2 26 -3.3 86 86 N 5 7 30.33 1027 10 16 0.00 0.00
4:35 am 04:35 Cloudy 30 -1.1 26 -3.4 85 85 NNE 3 6 30.33 1027 10 16 0.00 0.00
4:55 am 04:55 Cloudy 30 -0.9 26 -3.4 83 83 Calm 30.33 1027 10 16 0.00 0.00
5:15 am 05:15 Cloudy 30 -0.9 26 -3.4 83 83 N 3 6 30.33 1027 10 16 0.00 0.00
5:35 am 05:35 Mostly Cloudy 31 -0.8 26 -3.6 82 82 Calm 30.33 1027 10 16 0.00 0.00
5:55 am 05:55 Cloudy 31 -0.8 26 -3.2 84 84 NE 6 9 30.33 1027 10 16 0.00 0.00
6:15 am 06:15 Cloudy 30 -0.9 26 -3.2 85 85 ENE 3 6 30.33 1027 10 16 0.00 0.00
6:35 am 06:35 Cloudy 31 -0.6 26 -3.3 82 82 NE 3 6 30.33 1027 10 16 0.00 0.00
6:55 am 06:55 Cloudy 31 -0.8 26 -3.3 83 83 Calm 30.33 1027 10 16 0.00 0.00
7:15 am 07:15 Cloudy 31 -0.8 26 -3.3 83 83 Calm 30.33 1027 10 16 0.00 0.00
7:35 am 07:35 Cloudy 31 -0.8 27 -3 85 85 NNE 3 6 30.33 1027 10 16 0.00 0.00
7:55 am 07:55 Cloudy 31 -0.7 27 -2.8 86 86 NNE 3 6 30.33 1027 10 16 0.00 0.00
8:15 am 08:15 Cloudy 31 -0.6 27 -2.7 86 86 Calm 30.36 1028 10 16 0.00 0.00
8:35 am 08:35 Cloudy 31 -0.3 27 -2.7 84 84 Calm 30.36 1028 10 16 0.00 0.00
8:55 am 08:55 Cloudy 32 -0.2 28 -2.5 85 85 Calm 30.39 1029 10 16 0.00 0.00
9:15 am 09:15 Cloudy 32 0 28 -2.5 83 83 NNW 3 6 30.39 1029 10 16 0.00 0.00
9:35 am 09:35 Cloudy 32 0.1 28 -2.3 84 84 N 3 6 30.39 1029 10 16 0.00 0.00
9:55 am 09:55 Cloudy 33 0.3 28 -2 85 85 NE 5 7 30.42 1030 10 16 0.00 0.00
10:15 am 10:15 Cloudy 33 0.4 28 -2 84 84 NNE 6 9 30.42 1030 10 16 0.00 0.00
10:35 am 10:35 Cloudy 33 0.7 29 -1.6 85 85 NE 5 7 30.42 1030 10 16 0.00 0.00
10:55 am 10:55 Cloudy with Light Snow 33 0.8 29 -1.6 84 84 NE 7 11 30.42 1030 10 16 0.00 0.00
11:15 am 11:15 Cloudy with Light Snow 33 0.8 29 -1.4 85 85 NE 8 13 30.39 1029 7 11 0.00 0.00
11:35 am 11:35 Cloudy 34 1.2 31 -0.8 87 87 NE 6 9 30.39 1029 10 16 0.00 0.00
11:55 am 11:55 Cloudy 35 1.8 31 -0.4 86 86 ENE 5 7 30.39 1029 10 16 0.00 0.00
12:15 pm 12:15 Cloudy 36 2.1 31 -0.4 84 84 E 3 6 30.39 1029 10 16 0.00 0.00
12:35 pm 12:35 Cloudy 37 2.8 32 -0.2 81 81 E 3 6 30.36 1028 10 16 0.00 0.00
12:55 pm 12:55 Cloudy 37 3 32 0 81 81 Calm 30.36 1028 10 16 0.00 0.00
1:15 pm 13:15 Cloudy 39 3.7 31 -0.3 75 75 ENE 3 6 30.36 1028 10 16 0.00 0.00
1:35 pm 13:35 Cloudy 40 4.3 32 -0.1 73 73 NE 5 7 30.36 1028 10 16 0.00 0.00
1:55 pm 13:55 Cloudy 40 4.6 31 -0.3 71 71 ENE 5 7 30.36 1028 10 16 0.00 0.00
2:15 pm 14:15 Cloudy 40 4.6 32 0.1 73 73 E 5 7 30.36 1028 10 16 0.00 0.00
2:35 pm 14:35 Cloudy 42 5.6 31 -0.7 64 64 E 6 9 30.36 1028 10 16 0.00 0.00
2:55 pm 14:55 Cloudy 43 5.9 32 -0.2 65 65 E 3 6 30.36 1028 10 16 0.00 0.00
3:15 pm 15:15 Cloudy 42 5.8 32 -0.2 66 66 NE 6 9 30.36 1028 10 16 0.00 0.00
3:35 pm 15:35 Cloudy 43 6 31 -0.4 64 64 Calm 30.36 1028 10 16 0.00 0.00
3:55 pm 15:55 Partly Cloudy 43 6.1 32 -0.2 64 64 E 5 7 30.36 1028 10 16 0.00 0.00
4:15 pm 16:15 Sunny 42 5.7 31 -0.7 64 64 ESE 8 13 30.36 1028 10 16 0.00 0.00
4:35 pm 16:35 Sunny 42 5.5 31 -0.4 66 66 E 6 9 30.36 1028 10 16 0.00 0.00
4:55 pm 16:55 Sunny 41 4.8 31 -0.5 69 69 E 7 11 30.36 1028 10 16 0.00 0.00
5:15 pm 17:15 Partly Cloudy 39 4.1 31 -0.8 71 71 E 5 7 30.39 1029 10 16 0.00 0.00
5:35 pm 17:35 Clear 36 2.4 30 -1.3 77 77 E 6 9 30.39 1029 10 16 0.00 0.00
5:55 pm 17:55 Clear 37 2.8 31 -0.6 79 79 ENE 3 6 30.39 1029 10 16 0.00 0.00
6:15 pm 18:15 Clear 33 0.7 30 -1.1 88 88 Calm 30.39 1029 10 16 0.00 0.00
6:35 pm 18:35 Clear 32 0.2 31 -0.8 93 93 Calm 30.42 1030 10 16 0.00 0.00
6:55 pm 18:55 Clear 31 -0.4 29 -1.4 93 93 Calm 30.39 1029 10 16 0.00 0.00
7:15 pm 19:15 Clear 30 -1.1 29 -1.8 95 95 ENE 3 6 30.42 1030 10 16 0.00 0.00
7:35 pm 19:35 Clear 28 -2.3 27 -3 95 95 Calm 30.42 1030 10 16 0.00 0.00
7:55 pm 19:55 Clear 29 -1.9 27 -2.6 95 95 Calm 30.42 1030 10 16 0.00 0.00
8:15 pm 20:15 Clear 30 -1.3 29 -1.9 96 96 Calm 30.42 1030 10 16 0.00 0.00
8:35 pm 20:35 Clear 28 -2.4 27 -3 96 96 Calm 30.42 1030 10 16 0.00 0.00
8:55 pm 20:55 Clear with Mist and Fog 27 -2.7 26 -3.2 96 96 Calm 30.42 1030 7 11 0.00 0.00
9:15 pm 21:15 Clear 28 -2.2 28 -2.5 98 98 Calm 30.42 1030 7 11 0.00 0.00
9:35 pm 21:35 Clear 27 -2.8 26 -3.2 97 97 Calm 30.42 1030 7 11 0.00 0.00
9:55 pm 21:55 Clear 27 -2.6 27 -3 97 97 Calm 30.42 1030 7 11 0.00 0.00
10:15 pm 22:15 Clear with Mist and Fog 26 -3.2 26 -3.6 97 97 Calm 30.42 1030 5 8 0.00 0.00
10:35 pm 22:35 Mostly Cloudy with Mist and Fog 24 -4.2 24 -4.5 98 98 Calm 30.45 1031 1 1 0.00 0.00
10:55 pm 22:55 Clear with Mist and Fog 26 -3.3 25 -3.7 97 97 Calm 30.45 1031 5 8 0.00 0.00
11:15 pm 23:15 Mostly Cloudy with Mist and Fog 26 -3.1 26 -3.4 98 98 Calm 30.45 1031 1 1 0.00 0.00
11:35 pm 23:35 Clear with Mist and Fog 27 -3 26 -3.4 97 97 Calm 30.45 1031 5 8 0.00 0.00
11:55 pm 23:55 Clear with Mist and Fog 26 -3.5 25 -3.8 98 98 Calm 30.45 1031 7 11 0.00 0.00

Powered by AerisWeather